Location: Greene
(44.1583°N, 70.1456°W)
Time: 00:39:16
(UTC-05:00)

N. Korean satellite - Visible Passes

Search period start: 22 November 2017 00:00
Search period end: 02 December 2017 00:00
Orbit: 460 x 514 km, 97.2° (Epoch: 21 November)

Date Brightness Start Highest point End Pass type
(mag) Time Alt. Az. Time Alt. Az. Time Alt. Az.
22 Nov 6.8 17:14:16 10° SE 17:17:37 43° ENE 17:21:03 10° N visible
22 Nov 10.0 18:49:55 10° WSW 18:51:24 12° W 18:52:54 10° WNW visible
23 Nov 7.7 16:51:26 10° ESE 16:54:15 23° ENE 16:57:10 10° NNE visible
23 Nov 9.0 18:24:52 10° SSW 18:27:42 23° W 18:30:38 10° NW visible
24 Nov 9.3 05:50:02 10° NE 05:53:13 26° E 05:56:23 10° SSE visible
24 Nov 7.7 18:00:42 10° S 18:04:06 44° W 18:07:35 10° NNW visible
25 Nov 10.0 05:27:29 10° ENE 05:29:34 14° E 05:31:37 10° SE visible
25 Nov 6.4 17:37:02 10° SSE 17:40:34 88° ENE 17:44:12 10° NNW visible
26 Nov 6.8 17:13:44 10° SE 17:17:07 43° ENE 17:20:35 10° N visible
26 Nov 9.9 18:49:19 10° WSW 18:50:53 12° W 18:52:29 10° WNW visible
27 Nov 7.9 06:12:39 10° NNE 06:16:19 48° E 06:19:58 10° S visible
27 Nov 7.7 16:50:52 10° ESE 16:53:45 23° ENE 16:56:41 10° NNE visible
27 Nov 9.0 18:24:17 10° SSW 18:27:11 23° W 18:30:09 10° NW visible
28 Nov 9.2 05:49:31 10° NE 05:52:43 25° E 05:55:53 10° SSE visible
28 Nov 7.7 18:00:08 10° S 18:03:33 45° W 18:07:04 10° NNW visible
29 Nov 10.0 05:26:58 10° ENE 05:29:02 14° E 05:31:04 10° SE visible
29 Nov 6.5 17:36:26 10° SSE 17:40:00 88° E 17:43:41 10° NNW visible
30 Nov 6.9 17:13:07 10° SE 17:16:32 43° ENE 17:20:02 10° N visible
30 Nov 9.9 18:48:38 10° WSW 18:50:18 13° W 18:52:00 10° WNW visible
01 Dec 7.9 06:12:05 10° NNE 06:15:45 48° E 06:19:24 10° S visible
01 Dec 7.7 16:50:14 10° ESE 16:53:09 23° ENE 16:56:07 10° NNE visible
01 Dec 9.0 18:23:38 10° SSW 18:26:35 24° W 18:29:36 10° NW visible
